GW0587 Weather Reports


Display with metric or nautical units.
time (UTC)temp
F
wind
direction
speed
MPH
gust
MPH
rain 1hr
in
rain 24hr
in
rain mn
in
humidity
%
barometer
mb
20260505111547 63 0 0.0 1.0 0.00 0.00 0.00 72 1009.8
20260505110106 63 0 0.0 1.0 0.00 0.00 0.00 71 1009.6
20260505101541 63 0 0.0 3.0 0.00 0.00 0.00 70 1009.3
20260505100047 64 0 0.0 6.0 0.00 0.00 0.00 69 1009.2
20260505094548 64 0 0.0 4.0 0.00 0.00 0.00 69 1009.1
20260505093049 64 159 0.0 3.0 0.00 0.00 0.00 68 1009.1
20260505091553 64 0 0.0 5.0 0.00 0.00 0.00 67 1009.0
20260505090042 64 0 0.0 7.0 0.00 0.00 0.00 67 1008.8
20260505084551 64 0 0.0 5.0 0.00 0.00 0.00 66 1008.9
20260505083054 64 192 1.0 5.0 0.00 0.00 0.00 66 1009.0
20260505081547 64 165 0.0 4.0 0.00 0.00 0.00 65 1009.3
20260505080047 65 173 0.0 8.0 0.00 0.00 0.00 64 1009.4
20260505074543 66 0 1.0 6.0 0.00 0.00 0.00 62 1009.5
20260505073047 66 96 0.0 5.0 0.00 0.00 0.00 61 1009.4
20260505071541 67 0 0.0 5.0 0.00 0.00 0.00 61 1009.8
20260505070042 67 0 1.0 10.0 0.00 0.00 0.00 60 1010.2
20260505064615 67 338 0.0 7.0 0.00 0.00 0.00 59 1010.6
20260505063045 67 148 1.0 5.0 0.00 0.00 0.00 59 1010.7
20260505061542 68 0 0.0 8.0 0.00 0.00 0.00 58 1010.8
20260505060042 68 219 0.0 6.0 0.00 0.00 0.00 58 1010.9
20260505054549 68 0 0.0 8.0 0.00 0.00 0.00 57 1010.8
20260505053041 68 263 1.0 7.0 0.00 0.00 0.00 58 1010.8
20260505051541 68 0 0.0 4.0 0.00 0.00 0.00 58 1010.9
20260505041542 69 227 0.0 8.0 0.00 0.00 0.00 57 1011.1
20260505040056 69 0 0.0 6.0 0.00 0.00 0.00 56 1011.1
20260505034604 69 157 0.0 11.0 0.00 0.00 0.00 56 1010.9
20260505033043 70 144 0.0 5.0 0.00 0.00 0.00 55 1011.0
20260505031542 70 0 0.0 5.0 0.00 0.00 0.00 55 1010.9
20260505030054 70 0 0.0 4.0 0.00 0.00 0.00 54 1010.9
20260505024601 71 0 0.0 6.0 0.00 0.00 0.00 53 1010.7
20260505023048 71 184 0.0 6.0 0.00 0.00 0.00 51 1010.7
20260505021547 71 139 0.0 5.0 0.00 0.00 0.00 51 1010.6
20260505020104 72 0 1.0 6.0 0.00 0.00 0.00 50 1010.4
20260505014549 72 0 0.0 7.0 0.00 0.00 0.00 49 1010.3
20260505013047 73 0 0.0 5.0 0.00 0.00 0.00 49 1010.3
20260505011548 73 0 1.0 6.0 0.00 0.00 0.00 48 1010.3
20260505010106 74 0 1.0 13.0 0.00 0.00 0.00 48 1010.3
20260505004559 74 169 3.0 13.0 0.00 0.00 0.00 47 1010.2
20260505003051 75 231 2.0 9.0 0.00 0.00 0.00 46 1010.1
20260505001547 76 259 2.0 7.0 0.00 0.00 0.00 44 1010.0
20260505000056 76 242 1.0 9.0 0.00 0.00 0.00 43 1010.1
20260504234547 77 256 1.0 9.0 0.00 0.00 0.00 43 1010.2
20260504233041 77 223 1.0 8.0 0.00 0.00 0.00 41 1010.2
20260504231554 78 259 2.0 11.0 0.00 0.00 0.00 40 1010.2
20260504230047 78 195 1.0 9.0 0.00 0.00 0.00 40 1010.3
20260504224546 78 284 1.0 14.0 0.00 0.00 0.00 40 1010.3
20260504223046 79 264 0.0 10.0 0.00 0.00 0.00 40 1010.4
20260504221605 79 0 1.0 9.0 0.00 0.00 0.00 40 1010.2
20260504220047 79 271 2.0 9.0 0.00 0.00 0.00 41 1010.3
20260504214547 79 173 3.0 10.0 0.00 0.00 0.00 38 1010.3
20260504213045 79 265 3.0 15.0 0.00 0.00 0.00 39 1010.4
20260504211600 80 245 2.0 10.0 0.00 0.00 0.00 40 1010.3
20260504210047 80 273 1.0 15.0 0.00 0.00 0.00 40 1010.5
20260504204540 80 144 3.0 9.0 0.00 0.00 0.00 39 1010.7
20260504203046 81 234 2.0 12.0 0.00 0.00 0.00 39 1010.9
20260504201544 81 238 2.0 11.0 0.00 0.00 0.00 40 1011.0
20260504200041 80 168 2.0 12.0 0.00 0.00 0.00 40 1011.5
20260504194553 80 210 4.0 11.0 0.00 0.00 0.00 39 1011.8
20260504193046 81 154 3.0 16.0 0.00 0.00 0.00 38 1012.0
20260504191609 80 0 2.0 10.0 0.00 0.00 0.00 39 1011.9
20260504190041 81 263 3.0 11.0 0.00 0.00 0.00 37 1012.2
20260504184550 81 240 3.0 10.0 0.00 0.00 0.00 39 1012.3
20260504183047 80 180 3.0 11.0 0.00 0.00 0.00 41 1012.4
20260504181547 79 319 3.0 8.0 0.00 0.00 0.00 43 1012.8
20260504180047 79 263 2.0 10.0 0.00 0.00 0.00 42 1013.1
20260504174542 80 248 4.0 10.0 0.00 0.00 0.00 41 1013.2
20260504173043 80 182 2.0 9.0 0.00 0.00 0.00 42 1013.3
20260504171543 79 173 3.0 13.0 0.00 0.00 0.00 43 1013.6